215P/NEAT (2010)

Japanese version
Home page
Updated on May 9, 2009

---------------------------------------------------------------------

* Profile

Designation 215P/2009 B5
Recovery Date January 22, 2009
Magnitude 20.3 mag
Recoverer G. Hug (Scranton, KS, U.S.A.)

* Orbital Elements

Epoch 2010 June 13.0 TT = JDT 2455360.5
T 2010 June 8.03898 TT                                  MPC
q   3.2133783            (2000.0)            P               Q
n   0.12217682     Peri.  222.45264     +0.45162171     +0.86609843
a   4.0223221      Node    75.44098     -0.74758613     +0.49842237
e   0.2011136      Incl.   12.78998     -0.48698338     +0.03806126
P   8.07

* Finding Charts

* Magnitudes Graph

        m1 = 0.0 + 5 log d + 30 log r

---------------------------------------------------------------------

The orbital elements are published on M.P.E.C. 2009-C19.
The charts are made with StellaNavigator Ver.8 (AstroArts).
The magnitudes graphs are made with Comet for Windows.

---------------------------------------------------------------------

Copyright(C) Seiichi Yoshida (comet@aerith.net). All rights reserved.